Peyton, CO

8:06 PM MST on December 10, 2016 (GMT -0700)
Meadow Lake

Weather History for KFLY - March, 2013

Change the Weather History Date:

Saturday, March 9, 2013

  Actual Average (KCOS) Record (KCOS)
Temperature  
Mean Temperature 28 °F -  
Max Temperature 33 °F 52 °F 78 °F (1989)
Min Temperature 22 °F 26 °F -3 °F (1932)
Degree Days  
Heating Degree Days 38    
Moisture  
Dew Point 24 °F    
Average Humidity 84    
Maximum Humidity 93    
Minimum Humidity 66    
Precipitation  
Precipitation 0.00 in - - ()
Sea Level Pressure  
Sea Level Pressure 29.72 in    
Wind  
Wind Speed 20 mph (North)    
Max Wind Speed 37 mph    
Max Gust Speed 53 mph    
Visibility 4 miles    
Events Snow    
Averages and records for this station are not official NWS values.
T = Trace of Precipitation, MM = Missing Value Source: NWS Daily Summary

Daily Weather History Graph

Daily Weather History Graph

Search for Another Location

Airport or City:

Trip Planner

Search our weather history database for the weather conditions in past years. The results will help you decide how hot, cold, wet, or windy it might be!

Date:

Astronomy

Mar. 09, 2013 Rise Set
Actual Time 6:18 AM MST 5:59 PM MST
Civil Twilight 5:51 AM MST 6:26 PM MST
Nautical Twilight 5:20 AM MST 6:57 PM MST
Astronomical Twilight 4:49 AM MST 7:28 PM MST
Moon 4:43 AM MST (3/9) 4:05 PM MST (3/9)
Length of Visible Light 12h 34m
Length of Day
11h 41m
Waning Crescent, 5% of the Moon is Illuminated
Mar 9
Waning Crescent
Mar 11
New
Mar 19
First Quarter
Mar 27
Full
Apr 2
Last Quarter

Hourly Weather History & Observations

Time (MST) Temp. Windchill Dew Point Humidity Pressure Visibility Wind Dir Wind Speed Gust Speed Precip Events Conditions
12:13 AM 33.4 °F 24.3 °F 30.6 °F 89% 29.64 in 5.0 mi North 12.7 mph - N/A   Clear
12:33 AM 33.4 °F 24.3 °F 30.2 °F 88% 29.62 in 7.0 mi North 12.7 mph - N/A   Clear
12:53 AM 32.7 °F 23.9 °F 30.0 °F 90% 29.62 in 5.0 mi NNW 11.5 mph - N/A   Clear
1:13 AM 32.4 °F 24.0 °F 29.8 °F 90% 29.62 in 5.0 mi NNW 10.4 mph - N/A   Clear
1:33 AM 32.7 °F 23.9 °F 29.3 °F 87% 29.62 in 7.0 mi NNW 11.5 mph - N/A   Clear
1:53 AM 32.0 °F 22.5 °F 29.3 °F 90% 29.62 in 7.0 mi North 12.7 mph 17.3 mph N/A   Clear
2:13 AM 31.6 °F 22.1 °F 29.3 °F 91% 29.60 in 4.0 mi North 12.7 mph - N/A   Clear
2:33 AM 31.5 °F 21.8 °F 29.5 °F 92% 29.60 in 4.0 mi NNW 12.7 mph - N/A   Clear
2:53 AM 32.0 °F 22.1 °F 29.3 °F 90% 29.60 in 5.0 mi NNW 13.8 mph 19.6 mph N/A   Clear
3:13 AM 32.0 °F 22.5 °F 29.3 °F 90% 29.59 in 5.0 mi North 12.7 mph 18.4 mph N/A   Clear
3:33 AM 31.6 °F 22.1 °F 29.3 °F 91% 29.59 in 4.0 mi North 12.7 mph - N/A   Clear
3:53 AM 31.5 °F 21.8 °F 29.3 °F 92% 29.60 in 4.0 mi North 12.7 mph - N/A   Clear
4:13 AM 31.5 °F 20.5 °F 29.3 °F 92% 29.59 in 4.0 mi North 16.1 mph 21.9 mph N/A   Clear
4:33 AM 31.6 °F 20.4 °F 29.3 °F 91% 29.58 in 5.0 mi North 17.3 mph 23.0 mph N/A   Clear
4:53 AM 31.5 °F 21.4 °F 29.1 °F 91% 29.58 in 5.0 mi North 13.8 mph 23.0 mph N/A   Clear
5:13 AM 31.1 °F 20.9 °F 28.9 °F 92% 29.58 in 5.0 mi North 13.8 mph - N/A   Clear
5:33 AM 31.5 °F 21.4 °F 29.1 °F 91% 29.59 in 5.0 mi North 13.8 mph - N/A   Clear
5:53 AM 31.6 °F 23.1 °F 28.9 °F 90% 29.60 in 5.0 mi North 10.4 mph 20.7 mph N/A   Clear
6:13 AM 31.3 °F 20.3 °F 29.3 °F 92% 29.60 in 5.0 mi North 16.1 mph 20.7 mph N/A   Clear
6:33 AM 31.8 °F 20.6 °F 30.0 °F 93% 29.62 in 4.0 mi North 17.3 mph 23.0 mph N/A   Scattered Clouds
6:52 AM 32.0 °F 20.8 °F 30.2 °F 93% 29.62 in 2.5 mi North 17.3 mph 23.0 mph N/A   Overcast
7:12 AM 32.0 °F 23.6 °F 30.2 °F 93% 29.62 in 2.5 mi NNW 10.4 mph - N/A   Overcast
7:14 AM 32.0 °F 23.6 °F 30.2 °F 93% 29.62 in 2.5 mi North 10.4 mph - N/A   Overcast
9:53 AM 31.8 °F 18.7 °F 27.3 °F 83% 29.63 in 3.0 mi North 24.2 mph 34.5 mph N/A Snow Light Snow
10:13 AM 31.6 °F 17.9 °F 27.9 °F 86% 29.64 in 1.8 mi North 26.5 mph 33.4 mph N/A Snow Light Snow
10:33 AM 31.6 °F 19.0 °F 28.0 °F 87% 29.64 in 1.5 mi North 21.9 mph 39.1 mph N/A Snow Light Snow
10:53 AM 30.2 °F 14.9 °F 27.1 °F 88% 29.65 in 0.8 mi North 31.1 mph 39.1 mph N/A Snow Light Snow
11:13 AM 29.5 °F 14.2 °F 26.4 °F 88% 29.65 in 0.8 mi North 29.9 mph 42.6 mph N/A Snow Light Snow
11:33 AM 30.0 °F 15.2 °F 26.4 °F 86% 29.65 in 1.2 mi North 28.8 mph 41.4 mph N/A Snow Light Snow
11:53 AM 30.4 °F 15.2 °F 26.4 °F 85% 29.65 in 1.0 mi North 31.1 mph 49.5 mph N/A Snow Light Snow
12:13 PM 30.2 °F 15.7 °F 27.0 °F 88% 29.65 in 0.8 mi North 27.6 mph 38.0 mph N/A Snow Light Snow
12:33 PM 29.7 °F 14.5 °F 26.2 °F 87% 29.65 in 1.0 mi North 29.9 mph 46.0 mph N/A Snow Light Snow
12:53 PM 29.3 °F 13.7 °F 26.2 °F 88% 29.65 in 0.8 mi North 31.1 mph 46.0 mph N/A Snow Light Snow
1:13 PM 30.0 °F 15.2 °F 27.0 °F 88% 29.65 in 1.0 mi North 28.8 mph 40.3 mph N/A Snow Light Snow
1:33 PM 30.0 °F 14.2 °F 25.7 °F 84% 29.65 in 2.0 mi North 33.4 mph 46.0 mph N/A Snow Light Snow
1:53 PM 29.3 °F 13.5 °F 25.9 °F 87% 29.65 in 0.8 mi North 32.2 mph 46.0 mph N/A Snow Light Snow
2:13 PM 28.9 °F 13.0 °F 25.0 °F 85% 29.66 in 1.2 mi North 32.2 mph 43.7 mph N/A Snow Light Snow
2:33 PM 28.6 °F 11.6 °F 24.1 °F 83% 29.67 in 1.0 mi North 36.8 mph 50.6 mph N/A Snow Light Snow
2:53 PM 28.4 °F 11.8 °F 23.7 °F 83% 29.68 in 1.5 mi North 34.5 mph 49.5 mph N/A Snow Light Snow
3:13 PM 26.8 °F 9.3 °F 23.4 °F 87% 29.70 in 0.8 mi North 35.7 mph 52.9 mph N/A Snow Light Snow
3:33 PM 27.9 °F 11.5 °F 23.2 °F 83% 29.71 in 1.2 mi North 32.2 mph 44.9 mph N/A Snow Light Snow
3:53 PM 26.6 °F 9.8 °F 23.0 °F 86% 29.71 in 0.8 mi North 32.2 mph 49.5 mph N/A Snow Light Snow
4:13 PM 26.6 °F 9.3 °F 23.0 °F 86% 29.71 in 1.0 mi North 34.5 mph 46.0 mph N/A Snow Light Snow
4:33 PM 26.6 °F 12.0 °F 23.7 °F 89% 29.73 in 0.8 mi North 23.0 mph 33.4 mph N/A Snow Light Snow
4:53 PM 26.8 °F 9.8 °F 23.5 °F 88% 29.72 in 0.8 mi North 33.4 mph 43.7 mph N/A Snow Light Snow
5:13 PM 26.2 °F 9.1 °F 23.7 °F 90% 29.73 in 0.5 mi North 33.4 mph 44.9 mph N/A Snow Light Snow
5:33 PM 26.4 °F 9.5 °F 23.9 °F 90% 29.74 in 0.8 mi North 32.2 mph 42.6 mph N/A Snow Light Snow
5:53 PM 25.9 °F 8.3 °F 23.5 °F 91% 29.76 in 0.5 mi North 34.5 mph 50.6 mph N/A Snow Light Snow
6:13 PM 25.5 °F 7.8 °F 22.6 °F 89% 29.78 in 0.8 mi North 34.5 mph 44.9 mph N/A Snow Light Snow
6:33 PM 25.3 °F 9.4 °F 21.7 °F 86% 29.80 in 2.0 mi North 26.5 mph 44.9 mph N/A Snow Light Snow
6:53 PM 25.7 °F 9.3 °F 19.8 °F 78% 29.82 in 10.0 mi North 28.8 mph 40.3 mph N/A   Scattered Clouds
7:13 PM 25.7 °F 10.2 °F 18.0 °F 73% 29.84 in 10.0 mi North 25.3 mph 38.0 mph N/A   Scattered Clouds
7:33 PM 25.2 °F 9.8 °F 16.7 °F 70% 29.85 in 10.0 mi North 24.2 mph 32.2 mph N/A   Scattered Clouds
7:53 PM 24.8 °F 8.7 °F 16.2 °F 70% 29.87 in 10.0 mi North 26.5 mph 39.1 mph N/A   Clear
8:13 PM 24.6 °F 9.4 °F 16.2 °F 70% 29.89 in 10.0 mi North 23.0 mph 40.3 mph N/A   Scattered Clouds
8:32 PM 24.4 °F 7.9 °F 15.8 °F 70% 29.91 in 10.0 mi North 27.6 mph 43.7 mph N/A   Overcast
8:53 PM 23.7 °F 6.4 °F 15.4 °F 71% 29.91 in 10.0 mi North 29.9 mph 39.1 mph N/A   Overcast
9:13 PM 23.5 °F 6.4 °F 14.9 °F 70% 29.92 in 10.0 mi North 28.8 mph 41.4 mph N/A   Mostly Cloudy
9:33 PM 23.4 °F 5.9 °F 14.9 °F 70% 29.94 in 10.0 mi North 29.9 mph 38.0 mph N/A   Overcast
9:53 PM 23.0 °F 6.6 °F 14.5 °F 70% 29.96 in 10.0 mi North 25.3 mph 40.3 mph N/A   Overcast
10:13 PM 23.0 °F 6.9 °F 13.8 °F 68% 29.98 in 10.0 mi North 24.2 mph 35.7 mph N/A   Overcast
10:33 PM 23.0 °F 6.6 °F 13.6 °F 67% 29.99 in 10.0 mi North 25.3 mph 32.2 mph N/A   Overcast
10:53 PM 23.0 °F 7.6 °F 13.8 °F 68% 29.99 in 10.0 mi North 21.9 mph 34.5 mph N/A   Overcast
11:13 PM 22.3 °F 7.4 °F 12.9 °F 67% 30.00 in 10.0 mi North 19.6 mph 32.2 mph N/A   Overcast
11:33 PM 22.1 °F 7.2 °F 12.4 °F 66% 30.00 in 10.0 mi North 19.6 mph 32.2 mph N/A   Overcast
11:53 PM 22.1 °F 6.0 °F 12.2 °F 66% 30.00 in 10.0 mi North 23.0 mph 32.2 mph N/A   Overcast